Location: De Har
(53.3413°N, 6.6858°E)
Time: 20:57:00
(UTC+00:00)

TiPS - Pass Details

Date: 22 April 2026
Orbit: 140 x 161 km, 63.2° (Epoch: 21 April)

Event Time Altitude Azimuth Distance (km) Brightness Sun altitude
Exits shadow 02:55:44 31° 344° (NNW) 244 4.3 -11.4°
Drops below altitude 10° 02:56:46 10° 32° (NNE) 597 7.3 -11.3°
Sets 02:58:23 0° 43° (NE) 1,301 9.8 -11.1°
